Location: Dappach
(48.9767°N, 9.6998°E)
Time: 20:38:33
(UTC+00:00)

Cosmos 1400 Rocket - Pass Details

Date: 23 May 2024
Orbit: 500 x 544 km, 81.1° (Epoch: 24 June)

Event Time Altitude Azimuth Distance (km) Brightness Sun altitude
Exits shadow 00:33:34 33° 247° (WSW) 930 3.6 -18.4°
Maximum altitude 00:34:42 41° 287° (WNW) 795 3.6 -18.3°
Drops below altitude 10° 00:38:31 10° 359° (N) 1,817 6.5 -18.1°
Sets 00:40:46 0° 7° (N) 2,709 7.9 -18.0°
